Powrót do katalogu

STARLINK-35922

AktywnyŁącznośćVLEO
NORAD 66502·PAYLOAD·🇺🇸 United States

Wystrzelony Nov 15, 2025 z Cape Canaveral Space Force Station

Loading…

Następne Przeloty (najbliższe 24 godziny)

TLE

ŚwieżeSource: CelesTrak SupGP

Epoka: Sep 14, 2026, 23:12 UTC

1 66502C 25263T   26257.96715278 -.00016860  00000+0 -61077-3 0  2577
2 66502  43.0016   2.0475 0001517 278.5495  59.1735 15.27581455    11

Śledź STARLINK-35922 w czasie rzeczywistym z AllMySat

Download on the App Store